| time (UTC) | temp F | wind direction | speed MPH | gust MPH | rain 1hr in | rain 24hr in | rain mn in | humidity % | barometer mb |
| 20260508021532 | 48 | 359 | 3.0 | 11.0 | 0.00 | 0.00 | 0.00 | 36 | 1012.4 |
| 20260508020025 | 48 | 229 | 7.0 | 13.0 | 0.00 | 0.00 | 0.00 | 35 | 1012.5 |
| 20260508014532 | 48 | 191 | 4.0 | 11.0 | 0.00 | 0.00 | 0.00 | 34 | 1012.4 |
| 20260508013024 | 48 | 185 | 4.0 | 14.0 | 0.00 | 0.00 | 0.00 | 37 | 1012.6 |
| 20260508011521 | 48 | 213 | 4.0 | 11.0 | 0.00 | 0.00 | 0.00 | 37 | 1012.6 |
| 20260508010036 | 48 | 215 | 2.0 | 7.0 | 0.00 | 0.00 | 0.00 | 36 | 1012.8 |
| 20260508004524 | 49 | 196 | 4.0 | 10.0 | 0.00 | 0.00 | 0.00 | 36 | 1012.8 |
| 20260508003022 | 50 | 193 | 7.0 | 12.0 | 0.00 | 0.00 | 0.00 | 33 | 1012.9 |
| 20260508001530 | 51 | 166 | 8.0 | 19.0 | 0.00 | 0.00 | 0.00 | 32 | 1012.9 |
| 20260508000020 | 50 | 144 | 5.0 | 18.0 | 0.00 | 0.00 | 0.00 | 35 | 1013.0 |
| 20260507234518 | 49 | 258 | 5.0 | 10.0 | 0.00 | 0.00 | 0.00 | 36 | 1013.3 |
| 20260507233014 | 49 | 208 | 3.0 | 15.0 | 0.00 | 0.00 | 0.00 | 35 | 1013.4 |
| 20260507231514 | 49 | 204 | 4.0 | 13.0 | 0.00 | 0.00 | 0.00 | 34 | 1013.3 |
| 20260507230014 | 48 | 218 | 5.0 | 12.0 | 0.00 | 0.00 | 0.00 | 36 | 1013.5 |
| 20260507224513 | 48 | 229 | 7.0 | 14.0 | 0.00 | 0.00 | 0.00 | 35 | 1013.5 |
| 20260507223013 | 48 | 243 | 7.0 | 14.0 | 0.00 | 0.00 | 0.00 | 36 | 1013.5 |
| 20260507221518 | 48 | 282 | 5.0 | 14.0 | 0.00 | 0.00 | 0.00 | 36 | 1013.5 |
| 20260507220015 | 48 | 270 | 6.0 | 13.0 | 0.00 | 0.00 | 0.00 | 37 | 1013.5 |
| 20260507214510 | 48 | 245 | 6.0 | 14.0 | 0.00 | 0.00 | 0.00 | 37 | 1013.6 |
| 20260507213022 | 48 | 237 | 8.0 | 13.0 | 0.00 | 0.00 | 0.00 | 38 | 1013.7 |
| 20260507211509 | 49 | 304 | 3.0 | 13.0 | 0.00 | 0.00 | 0.00 | 39 | 1013.7 |
| 20260507210023 | 49 | 215 | 5.0 | 13.0 | 0.00 | 0.00 | 0.00 | 38 | 1013.6 |
| 20260507204507 | 48 | 286 | 4.0 | 11.0 | 0.00 | 0.00 | 0.00 | 41 | 1013.7 |
| 20260507203058 | 49 | 359 | 9.0 | 16.0 | 0.00 | 0.00 | 0.00 | 39 | 1013.9 |
| 20260507201553 | 49 | 271 | 9.0 | 18.0 | 0.00 | 0.00 | 0.00 | 39 | 1013.9 |
| 20260507200104 | 48 | 222 | 3.0 | 13.0 | 0.00 | 0.00 | 0.00 | 42 | 1013.9 |
| 20260507194552 | 49 | 251 | 10.0 | 17.0 | 0.00 | 0.00 | 0.00 | 38 | 1014.0 |
| 20260507193110 | 48 | 222 | 7.0 | 16.0 | 0.00 | 0.00 | 0.00 | 38 | 1013.9 |
| 20260507191557 | 48 | 278 | 6.0 | 14.0 | 0.00 | 0.00 | 0.00 | 40 | 1014.0 |
| 20260507190047 | 48 | 187 | 3.0 | 12.0 | 0.00 | 0.00 | 0.00 | 41 | 1014.0 |
| 20260507184546 | 47 | 359 | 6.0 | 15.0 | 0.00 | 0.00 | 0.00 | 41 | 1014.1 |
| 20260507183056 | 47 | 359 | 5.0 | 13.0 | 0.00 | 0.00 | 0.00 | 45 | 1014.1 |
| 20260507181541 | 46 | 259 | 6.0 | 12.0 | 0.00 | 0.00 | 0.00 | 45 | 1014.2 |
| 20260507180038 | 46 | 190 | 5.0 | 10.0 | 0.00 | 0.00 | 0.00 | 49 | 1014.1 |
| 20260507174535 | 44 | 168 | 7.0 | 11.0 | 0.00 | 0.00 | 0.00 | 51 | 1014.3 |
| 20260507173031 | 43 | 186 | 3.0 | 10.0 | 0.00 | 0.00 | 0.00 | 58 | 1014.4 |
| 20260507171526 | 41 | 204 | 2.0 | 7.0 | 0.00 | 0.00 | 0.00 | 64 | 1014.5 |
| 20260507170024 | 39 | 359 | 1.0 | 3.0 | 0.00 | 0.00 | 0.00 | 74 | 1014.6 |
| 20260507164520 | 38 | 359 | 0.0 | 4.0 | 0.00 | 0.00 | 0.00 | 75 | 1014.6 |
| 20260507163017 | 37 | 152 | 2.0 | 4.0 | 0.00 | 0.00 | 0.00 | 76 | 1014.7 |
| 20260507161518 | 36 | 120 | 0.0 | 4.0 | 0.00 | 0.00 | 0.00 | 80 | 1014.8 |
| 20260507160012 | 35 | 135 | 0.0 | 3.0 | 0.00 | 0.00 | 0.00 | 84 | 1014.7 |
| 20260507154507 | 34 | 135 | 1.0 | 4.0 | 0.00 | 0.00 | 0.00 | 86 | 1014.6 |
| 20260507153015 | 32 | 135 | 0.0 | 4.0 | 0.00 | 0.00 | 0.00 | 88 | 1014.6 |
| 20260507151506 | 31 | 299 | 1.0 | 3.0 | 0.00 | 0.00 | 0.00 | 88 | 1014.6 |
| 20260507150003 | 30 | 300 | 0.0 | 2.0 | 0.00 | 0.00 | 0.00 | 89 | 1014.5 |
| 20260507144503 | 30 | 359 | 0.0 | 2.0 | 0.00 | 0.00 | 0.00 | 89 | 1014.5 |
| 20260507143001 | 30 | 299 | 0.0 | 0.0 | 0.00 | 0.00 | 0.00 | 89 | 1014.5 |
| 20260507140111 | 29 | 299 | 0.0 | 2.0 | 0.00 | 0.00 | 0.00 | 90 | 1014.5 |
| 20260507134608 | 28 | 359 | 0.0 | 0.0 | 0.00 | 0.00 | 0.00 | 90 | 1014.6 |
| 20260507133101 | 28 | 359 | 0.0 | 0.0 | 0.00 | 0.00 | 0.00 | 90 | 1014.6 |
| 20260507131557 | 28 | 299 | 0.0 | 0.0 | 0.00 | 0.00 | 0.00 | 89 | 1014.5 |
| 20260507130054 | 28 | 299 | 0.0 | 0.0 | 0.00 | 0.00 | 0.00 | 89 | 1014.5 |
| 20260507124554 | 28 | 299 | 0.0 | 0.0 | 0.00 | 0.00 | 0.00 | 89 | 1014.5 |
| 20260507123053 | 28 | 299 | 0.0 | 0.0 | 0.00 | 0.00 | 0.00 | 88 | 1014.4 |
| 20260507121550 | 28 | 299 | 0.0 | 0.0 | 0.00 | 0.00 | 0.00 | 88 | 1014.4 |
| 20260507120050 | 28 | 298 | 0.0 | 0.0 | 0.00 | 0.00 | 0.00 | 88 | 1014.4 |
| 20260507114555 | 29 | 359 | 0.0 | 0.0 | 0.00 | 0.00 | 0.00 | 88 | 1014.3 |
| 20260507113050 | 28 | 299 | 0.0 | 0.0 | 0.00 | 0.00 | 0.00 | 88 | 1014.2 |
| 20260507111556 | 28 | 299 | 0.0 | 0.0 | 0.00 | 0.00 | 0.00 | 87 | 1014.1 |
| 20260507110044 | 28 | 299 | 0.0 | 0.0 | 0.00 | 0.00 | 0.00 | 87 | 1014.1 |
| 20260507104543 | 28 | 359 | 0.0 | 0.0 | 0.00 | 0.00 | 0.00 | 87 | 1014.0 |
| 20260507103041 | 28 | 299 | 0.0 | 0.0 | 0.00 | 0.00 | 0.00 | 86 | 1013.9 |
| 20260507101542 | 28 | 359 | 0.0 | 0.0 | 0.00 | 0.00 | 0.00 | 86 | 1013.7 |
| 20260507100037 | 29 | 299 | 0.0 | 2.0 | 0.00 | 0.00 | 0.00 | 85 | 1013.5 |
| 20260507094539 | 29 | 359 | 0.0 | 0.0 | 0.00 | 0.00 | 0.00 | 84 | 1013.5 |
| 20260507093041 | 30 | 299 | 0.0 | 2.0 | 0.00 | 0.00 | 0.00 | 83 | 1013.3 |
| 20260507091532 | 30 | 299 | 0.0 | 0.0 | 0.00 | 0.00 | 0.00 | 83 | 1013.1 |
| 20260507090026 | 31 | 299 | 0.0 | 0.0 | 0.00 | 0.00 | 0.00 | 81 | 1013.0 |
| 20260507084523 | 31 | 359 | 0.0 | 0.0 | 0.00 | 0.00 | 0.00 | 80 | 1012.8 |
| 20260507083027 | 32 | 299 | 0.0 | 0.0 | 0.00 | 0.00 | 0.00 | 80 | 1012.8 |
| 20260507081529 | 33 | 299 | 0.0 | 2.0 | 0.00 | 0.00 | 0.00 | 78 | 1012.7 |
| 20260507080019 | 34 | 299 | 0.0 | 3.0 | 0.00 | 0.00 | 0.00 | 78 | 1012.5 |
| 20260507074511 | 34 | 299 | 1.0 | 3.0 | 0.00 | 0.00 | 0.00 | 77 | 1012.3 |
| 20260507073010 | 35 | 299 | 0.0 | 2.0 | 0.00 | 0.00 | 0.00 | 76 | 1012.1 |
| 20260507071508 | 36 | 299 | 1.0 | 2.0 | 0.00 | 0.00 | 0.00 | 75 | 1012.1 |
| 20260507070010 | 36 | 299 | 0.0 | 3.0 | 0.00 | 0.00 | 0.00 | 74 | 1011.9 |
| 20260507064505 | 37 | 299 | 0.0 | 0.0 | 0.00 | 0.00 | 0.00 | 73 | 1011.7 |
| 20260507063004 | 37 | 299 | 0.0 | 2.0 | 0.00 | 0.00 | 0.00 | 72 | 1011.6 |
| 20260507061503 | 38 | 299 | 1.0 | 4.0 | 0.00 | 0.00 | 0.00 | 70 | 1011.4 |
| 20260507060101 | 38 | 297 | 1.0 | 4.0 | 0.00 | 0.00 | 0.00 | 70 | 1011.3 |
| 20260507060003 | 38 | 359 | 1.0 | 4.0 | 0.00 | 0.00 | 0.00 | 70 | 1011.3 |
| 20260507054609 | 39 | 324 | 1.0 | 4.0 | 0.00 | 0.00 | 0.00 | 69 | 1011.2 |
| 20260507053058 | 39 | 279 | 3.0 | 5.0 | 0.00 | 0.00 | 0.00 | 69 | 1011.0 |
| 20260507051556 | 40 | 272 | 1.0 | 6.0 | 0.00 | 0.00 | 0.00 | 68 | 1010.8 |
| 20260507050053 | 40 | 292 | 1.0 | 3.0 | 0.00 | 0.00 | 0.00 | 67 | 1010.5 |
| 20260507044552 | 41 | 293 | 0.0 | 3.0 | 0.00 | 0.00 | 0.00 | 67 | 1010.4 |
| 20260507043058 | 41 | 359 | 2.0 | 7.0 | 0.00 | 0.00 | 0.00 | 66 | 1010.3 |
| 20260507041600 | 42 | 247 | 3.0 | 6.0 | 0.00 | 0.00 | 0.00 | 65 | 1010.2 |
| 20260507040054 | 42 | 332 | 3.0 | 9.0 | 0.00 | 0.00 | 0.00 | 64 | 1010.1 |
| 20260507034549 | 42 | 324 | 4.0 | 7.0 | 0.00 | 0.00 | 0.00 | 63 | 1009.9 |
| 20260507033046 | 43 | 328 | 4.0 | 12.0 | 0.00 | 0.00 | 0.00 | 61 | 1009.7 |
| 20260507031543 | 45 | 332 | 5.0 | 9.0 | 0.00 | 0.00 | 0.00 | 59 | 1009.4 |
| 20260507030042 | 46 | 44 | 5.0 | 9.0 | 0.00 | 0.00 | 0.00 | 58 | 1009.2 |
| 20260507024540 | 47 | 359 | 6.0 | 12.0 | 0.00 | 0.00 | 0.00 | 56 | 1009.1 |
| 20260507023038 | 47 | 314 | 1.0 | 8.0 | 0.00 | 0.00 | 0.00 | 53 | 1008.9 |